Weather History for Pasco, WA

Change the Weather History Date:

Friday, May 11, 2012

  Actual Average Record
Temperature  
Mean Temperature 52 °F 59 °F  
Max Temperature 72 °F 75 °F 98 °F (1993)
Min Temperature 31 °F 44 °F 31 °F (2012)
Degree Days  
Heating Degree Days 13 6  
Month to date heating degree days 118 84  
Since 1 July heating degree days 4900 4908  
Cooling Degree Days 0 1  
Month to date cooling degree days 0 3  
Year to date cooling degree days 11 4  
Moisture  
Dew Point 30 °F    
Average Humidity 53    
Maximum Humidity 92    
Minimum Humidity 14    
Precipitation  
Precipitation 0.00 in 0.02 in 0.45 in (1958)
Month to date precipitation 0.02 0.22  
Year to date precipitation 3.62 3.74  
Snow  
Snow 0.00 in - - ()
Snow Depth 0.00 in    
Sea Level Pressure  
Sea Level Pressure 30.26 in    
Wind  
Wind Speed 2 mph (NNW)    
Max Wind Speed 10 mph    
Max Gust Speed 15 mph    
Visibility 10 miles    
Events      
T = Trace of Precipitation, MM = Missing Value Source: NWS Daily Summary

Daily Weather History Graph

Daily Weather History Graph

Search for Another Location

Airport:

Trip Planner

Search our weather history database for the weather conditions in past years. The results will help you decide how hot, cold, wet, or windy it might be!

Date:

Astronomy

May. 11, 2012 Rise Set
Actual Time 5:27 AM PDT 8:18 PM PDT
Civil Twilight 4:52 AM PDT 8:53 PM PDT
Nautical Twilight 4:08 AM PDT 9:38 PM PDT
Astronomical Twilight 3:16 AM PDT 10:31 PM PDT
Moon 12:58 AM PDT (5/11) 11:09 AM PDT (5/11)
Length of Visible Light 16h 00m
Length of Day
14h 51m
Waning Gibbous, 62% of the Moon is Illuminated
May 11
Waning Gibbous
May 12
Last Quarter
May 20
New
May 28
First Quarter
Jun 4
Full

Hourly Weather History & Observations

Time (PDT) Temp. Windchill Dew Point Humidity Pressure Visibility Wind Dir Wind Speed Gust Speed Precip Events Conditions
12:53 AM 36.0 °F - 32.0 °F 86% 30.27 in 10.0 mi Calm Calm - N/A   Unknown
1:53 AM 37.0 °F - 30.9 °F 79% 30.28 in 10.0 mi Calm Calm - N/A   Clear
2:53 AM 33.1 °F - 30.0 °F 89% 30.29 in 10.0 mi Calm Calm - N/A   Clear
3:53 AM 30.9 °F 25.2 °F 28.0 °F 89% 30.30 in 10.0 mi NNE 5.8 mph - N/A   Clear
4:53 AM 30.9 °F - 28.0 °F 89% 30.31 in 10.0 mi Calm Calm - N/A   Clear
5:53 AM 32.0 °F 28.7 °F 28.9 °F 88% 30.32 in 10.0 mi NNW 3.5 mph - N/A   Clear
6:53 AM 35.1 °F - 30.9 °F 85% 30.34 in 10.0 mi Calm Calm - N/A   Clear
7:53 AM 42.1 °F - 28.9 °F 60% 30.34 in 10.0 mi Calm Calm - N/A   Clear
8:53 AM 50.0 °F - 30.9 °F 48% 30.34 in 10.0 mi Calm Calm - N/A   Clear
9:53 AM 54.0 °F - 30.9 °F 41% 30.33 in 10.0 mi NW 6.9 mph - N/A   Clear
10:53 AM 59.0 °F - 33.1 °F 38% 30.32 in 10.0 mi North 5.8 mph - N/A   Clear
11:53 AM 62.1 °F - 32.0 °F 32% 30.30 in 10.0 mi Calm Calm - N/A   Clear
12:53 PM 66.0 °F - 27.0 °F 23% 30.28 in 10.0 mi Variable 5.8 mph - N/A   Clear
1:53 PM 66.9 °F - 26.1 °F 21% 30.26 in 10.0 mi Variable 4.6 mph - N/A   Clear
2:53 PM 68.0 °F - 24.1 °F 19% 30.25 in 10.0 mi Calm Calm - N/A   Clear
3:53 PM 69.1 °F - 21.0 °F 16% 30.22 in 10.0 mi WNW 6.9 mph - N/A   Clear
4:53 PM 71.1 °F - 19.9 °F 14% 30.19 in 10.0 mi NNW 4.6 mph - N/A   Clear
5:53 PM 71.1 °F - 21.9 °F 16% 30.18 in 10.0 mi NNE 6.9 mph - N/A   Clear
6:53 PM 68.0 °F - 27.0 °F 21% 30.17 in 10.0 mi Calm Calm - N/A   Clear
7:53 PM 60.1 °F - 36.0 °F 41% 30.17 in 10.0 mi NNW 4.6 mph - N/A   Clear
8:53 PM 52.0 °F - 37.0 °F 57% 30.19 in 10.0 mi NW 3.5 mph - N/A   Clear
9:53 PM 46.9 °F - 36.0 °F 66% 30.21 in 10.0 mi NNW 5.8 mph - N/A   Clear
10:53 PM 46.0 °F - 37.0 °F 71% 30.22 in 10.0 mi Calm Calm - N/A   Clear
11:53 PM 43.0 °F - 35.1 °F 74% 30.23 in 10.0 mi Calm Calm - N/A   Clear